Weather History for KTAD - October, 2012

Change the Weather History Date:

Thursday, October 18, 2012

  Actual Average Record
Temperature  
Mean Temperature 45 °F 52 °F  
Max Temperature 66 °F 68 °F - ()
Min Temperature 24 °F 36 °F - ()
Degree Days  
Heating Degree Days 20 13  
Month to date heating degree days 208 189  
Since 1 July heating degree days 284 299  
Cooling Degree Days 0 0  
Month to date cooling degree days 0 0  
Year to date cooling degree days 1175 716  
Moisture  
Dew Point 12 °F    
Average Humidity 35    
Maximum Humidity 60    
Minimum Humidity 10    
Precipitation  
Precipitation 0.00 in 0.03 in - ()
Month to date precipitation 0.05 0.48  
Year to date precipitation 12.18  
Sea Level Pressure  
Sea Level Pressure 30.03 in    
Wind  
Wind Speed 7 mph (WNW)    
Max Wind Speed 17 mph    
Max Gust Speed 21 mph    
Visibility 10 miles    
Events      
T = Trace of Precipitation, MM = Missing Value Source: NWS Daily Summary

Daily Weather History Graph

Daily Weather History Graph

Search for Another Location

Airport or City:

Trip Planner

Search our weather history database for the weather conditions in past years. The results will help you decide how hot, cold, wet, or windy it might be!

Date:

Astronomy

Oct. 18, 2012 Rise Set
Actual Time 7:08 AM MDT 6:15 PM MDT
Civil Twilight 6:42 AM MDT 6:41 PM MDT
Nautical Twilight 6:11 AM MDT 7:12 PM MDT
Astronomical Twilight 5:41 AM MDT 7:42 PM MDT
Moon 10:48 AM MDT (10/18) 8:57 PM MDT (10/18)
Length of Visible Light 11h 59m
Length of Day
11h 07m
Waxing Crescent, 15% of the Moon is Illuminated
Oct 18
Waxing Crescent
Oct 21
First Quarter
Oct 29
Full
Nov 6
Last Quarter
Nov 13
New

Hourly Weather History & Observations

Time (MDT) Temp. Windchill Dew Point Humidity Pressure Visibility Wind Dir Wind Speed Gust Speed Precip Events Conditions
12:54 AM 33.1 °F 26.1 °F 15.1 °F 48% 29.94 in 10.0 mi WNW 8.1 mph - N/A   Clear
1:54 AM 33.1 °F 26.9 °F 15.1 °F 48% 29.95 in 10.0 mi West 6.9 mph - N/A   Clear
2:54 AM 30.9 °F 22.8 °F 15.1 °F 52% 29.99 in 10.0 mi WNW 9.2 mph - N/A   Clear
3:54 AM 28.9 °F 21.1 °F 15.1 °F 56% 29.99 in 10.0 mi West 8.1 mph - N/A   Clear
4:54 AM 28.0 °F 18.6 °F 12.0 °F 51% 30.01 in 10.0 mi West 10.4 mph - N/A   Clear
5:54 AM 25.0 °F 17.1 °F 12.0 °F 58% 30.07 in 10.0 mi WNW 6.9 mph - N/A   Clear
6:54 AM 26.1 °F 17.6 °F 8.1 °F 47% 30.09 in 10.0 mi WNW 8.1 mph - N/A   Clear
7:54 AM 30.0 °F 24.1 °F 12.0 °F 47% 30.08 in 10.0 mi West 5.8 mph - N/A   Clear
8:54 AM 41.0 °F 35.8 °F 12.0 °F 31% 30.06 in 10.0 mi West 8.1 mph - N/A   Clear
9:54 AM 48.0 °F - 10.0 °F 22% 30.03 in 10.0 mi Variable 3.5 mph - N/A   Clear
10:54 AM 52.0 °F - 9.0 °F 18% 30.03 in 10.0 mi Calm Calm - N/A   Clear
11:54 AM 59.0 °F - 8.1 °F 13% 30.00 in 10.0 mi Variable 3.5 mph - N/A   Clear
1:54 PM 64.0 °F - 8.1 °F 11% 29.93 in 10.0 mi SSE 6.9 mph - N/A   Clear
2:54 PM 64.9 °F - 8.1 °F 11% 29.93 in 10.0 mi ESE 4.6 mph - N/A   Clear
3:54 PM 66.0 °F - 9.0 °F 11% 29.94 in 10.0 mi NE 11.5 mph - N/A   Clear
4:54 PM 64.9 °F - 10.0 °F 12% 29.96 in 10.0 mi ENE 10.4 mph - N/A   Clear
5:54 PM 57.0 °F - 12.9 °F 18% 30.04 in 10.0 mi ENE 10.4 mph - N/A   Clear
6:54 PM 51.1 °F - 12.9 °F 22% 30.08 in 10.0 mi ENE 5.8 mph - N/A   Clear
7:54 PM 46.9 °F - 12.9 °F 25% 30.11 in 10.0 mi Calm Calm - N/A   Clear
8:54 PM 46.9 °F - 12.9 °F 25% 30.08 in 10.0 mi Calm Calm - N/A   Clear
9:54 PM 34.0 °F 28.0 °F 12.0 °F 40% 30.12 in 10.0 mi WNW 6.9 mph - N/A   Clear
10:54 PM 37.0 °F 30.4 °F 12.0 °F 36% 30.09 in 10.0 mi West 9.2 mph - N/A   Clear
11:54 PM 39.0 °F 32.3 °F 14.0 °F 36% 30.06 in 10.0 mi West 10.4 mph - N/A   Clear